Vertical_Velocity
-7 -5 -2 -2 -2 -2 -5 -3 -1 -3 -4 -2 -1 -2 1 -3 -1 0 -2 -2 12 -2 2 6 -2 -1 -4
-2 -5 -8 1 -2 -5 -2 -1 -6 0 1 -4 -5 -0 2 4 -3 2 -3 2 14 1 4 8 3 -1 -3
-17 -4 -9 -2 -1 -2 -5 -4 -4 -5 -1 -0 -1 -4 -3 -3 -0 0 -1 3 4 4 11 8 5 -7 5
-3 -9 -3 -3 -6 -12 -2 -6 -9 -4 -3 -1 -1 0 -1 -4 -1 -8 -2 7 -3 7 4 14 6 -7 6
-1 -5 -1 -7 1 -4 -12 -3 -2 -3 -8 -1 -3 1 -1 -1 -2 -2 -6 -2 -3 -3 8 11 0 -1 -0
2 -5 -6 -2 -4 1 -5 -5 -11 -2 -10 -4 -4 -0 1 -2 -1 -1 -1 -9 4 1 8 18 5 -4 -7
6 2 -5 5 1 2 2 -5 -0 -3 -1 -24 -2 -4 1 -3 1 -6 3 -1 2 6 15 13 8 1 -9
-2 4 -2 2 -3 2 -1 2 -11 -1 2 -26 3 -6 -4 -1 -3 2 1 -5 1 3 1 16 8 -3 -5
-2 -0 1 -0 -1 -0 -3 1 -6 -9 4 -4 -3 -10 -5 -1 -2 -1 1 1 -2 -0 8 6 12 1 6
-6 -1 -3 -4 4 20 13 -3 2 -8 1 -3 -3 -1 -7 -1 -2 -2 1 -2 5 2 1 6 21 13 7
-5 -7 -1 -3 -2 -2 -7 9 11 -8 8 -3 -0 -3 0 -9 -4 2 -4 5 -1 -1 8 -2 17 4 -3
0 -1 -6 -4 -3 -1 -1 2 -4 -9 15 -2 1 -5 -3 -2 -6 -3 -0 -3 3 2 3 6 9 24 -2
1 4 1 -1 8 1 -1 -1 -1 -2 5 -4 4 1 -3 -4 -4 -10 -6 -1 2 5 4 7 2 8 10
-2 -1 1 -1 -2 2 -1 1 -0 -5 3 -2 1 4 -4 -3 4 -7 -0 -8 3 3 4 8 9 10 4
0 -2 -2 2 -2 -1 -1 1 -0 -1 -1 -3 2 1 -3 0 -1 -0 -5 -9 -1 -0 0 8 1 20 12
1 1 1 3 -1 -1 -1 3 -2 -3 1 2 -1 3 -1 -9 0 -4 -6 -8 -1 1 -1 -4 1 12 15
2 -0 2 -2 2 3 -0 1 -2 -1 -0 -1 -2 0 3 -9 4 -1 -4 -0 -3 -4 5 -0 2 6 40
Height
1515 1515 1514 1512 1512 1512 1511 1508 1505 1504 1501 1500 1499 1498 1497 1497 1499 1502 1502 1504 1507 1508 1512 1516 1518 1522 1526
1510 1509 1509 1508 1506 1505 1505 1505 1503 1501 1499 1497 1496 1495 1495 1495 1496 1497 1499 1502 1502 1505 1507 1512 1516 1519 1524
1504 1503 1502 1503 1502 1500 1499 1498 1499 1496 1495 1494 1493 1493 1490 1490 1490 1492 1493 1497 1498 1502 1504 1508 1512 1517 1521
1497 1497 1496 1497 1496 1497 1494 1493 1492 1493 1491 1489 1488 1488 1488 1486 1487 1488 1491 1491 1494 1497 1500 1503 1508 1514 1518
1490 1490 1490 1490 1490 1491 1490 1487 1486 1486 1485 1484 1483 1484 1484 1483 1483 1484 1485 1485 1488 1490 1494 1498 1505 1511 1515
1483 1482 1482 1483 1484 1484 1483 1483 1480 1478 1477 1478 1477 1478 1479 1479 1478 1478 1481 1483 1483 1485 1488 1492 1499 1506 1512
1475 1475 1475 1477 1478 1476 1476 1477 1475 1474 1472 1470 1470 1471 1472 1472 1472 1473 1473 1476 1478 1481 1484 1489 1494 1500 1508
1467 1467 1467 1469 1469 1470 1470 1469 1468 1469 1468 1464 1466 1463 1463 1466 1466 1467 1467 1470 1472 1475 1479 1486 1490 1496 1503
1458 1458 1460 1461 1462 1462 1462 1463 1461 1462 1463 1461 1462 1458 1457 1459 1460 1460 1460 1463 1466 1468 1474 1479 1485 1491 1498
1450 1450 1452 1452 1454 1455 1455 1454 1456 1456 1456 1457 1457 1456 1453 1451 1454 1454 1455 1456 1459 1463 1468 1472 1479 1484 1490
1443 1443 1444 1444 1445 1446 1447 1448 1449 1448 1452 1454 1452 1452 1452 1447 1448 1451 1450 1450 1451 1457 1462 1466 1472 1477 1482
1436 1436 1436 1437 1437 1438 1439 1440 1441 1441 1445 1447 1446 1448 1447 1445 1444 1444 1446 1446 1447 1451 1454 1459 1465 1472 1475
1429 1429 1429 1429 1430 1431 1432 1433 1433 1433 1435 1436 1437 1441 1442 1440 1438 1439 1440 1443 1444 1444 1447 1451 1456 1463 1468
1421 1422 1422 1422 1422 1423 1425 1426 1426 1426 1427 1429 1430 1432 1433 1433 1433 1433 1435 1436 1438 1438 1439 1440 1446 1453 1458
1414 1413 1414 1414 1414 1416 1417 1419 1418 1419 1420 1422 1424 1425 1427 1428 1426 1427 1428 1429 1431 1432 1433 1433 1437 1446 1449
1405 1405 1406 1406 1406 1408 1409 1410 1411 1411 1412 1415 1417 1419 1420 1420 1420 1421 1422 1423 1425 1426 1428 1430 1432 1437 1442
1397 1397 1398 1398 1399 1400 1401 1402 1403 1404 1406 1409 1411 1413 1414 1412 1414 1415 1416 1419 1419 1419 1422 1425 1426 1430 1439